Location: ?
(35.4214°N, 139.3011°E)
Time: 21:59:27
(UTC+00:00)

USA 81 - Pass Details

Date: 14 July 2020
Orbit: 786 x 788 km, 85.0° (Epoch: 17 July)

Event Time Altitude Azimuth Distance (km) Brightness Sun altitude
Exits shadow 11:37:06 - 190° (S) 2,435 6.3 -17.2°
Reaches altitude 10° 11:37:21 10° 191° (S) 2,337 6.2 -17.2°
Maximum altitude 11:42:34 70° 275° (W) 838 4.3 -18.0°
Drops below altitude 10° 11:47:50 10° 359° (N) 2,351 7.2 -18.7°
Sets 11:50:13 0° 1° (N) 3,283 8.0 -19.0°
